Simultaneous Nadir Overpasses (SNOs) Predictions

Prediction of SNOs between NOAA-21 and LANDSAT-8 Satellite Orbit:

Table of predicted SNOs for the next 14.0 days since TLE Epoch: 5/25/2024
Index Date (NOAA-21) Time (NOAA-21) Lat,Lon (NOAA-21) SZA (NOAA-21 ) Date (LANDSAT-8) Time (LANDSAT-8) Lat,Lon (LANDSAT-8) SZA (LANDSAT-8 ) Distance(km) Time Diff (sec)
1 05/25/2024 22:35:43 -70.18, 17.03 131.06 05/25/2024 22:36:51 -70.16, 16.98 131.08 2.49 68
2 05/25/2024 23:26:27 70.04,-175.46 48.80 05/25/2024 23:26:18 70.06,-175.52 48.82 2.76 9
3 05/26/2024 00:17:04 -69.70, -7.63 131.56 05/26/2024 00:15:52 -69.73, -8.35 131.52 27.89 72
4 05/28/2024 14:52:43 -70.17, 132.80 131.51 05/28/2024 14:53:20 -70.15, 132.84 131.53 2.55 37
5 05/28/2024 15:43:27 70.03, -59.69 48.36 05/28/2024 15:42:47 70.04, -59.67 48.36 0.86 40
6 05/31/2024 06:19:04 70.46, 80.78 48.42 05/31/2024 06:20:15 70.36, 81.39 48.30 25.47 71
7 05/31/2024 07:09:41 -70.12,-111.36 131.95 05/31/2024 07:09:48 -70.09,-111.37 131.98 2.83 7
8 05/31/2024 08:00:25 69.99, 56.14 47.92 05/31/2024 07:59:15 69.98, 56.12 47.91 1.05 70
9 06/02/2024 22:35:58 70.17,-163.00 47.77 06/02/2024 22:36:46 70.16,-163.03 47.75 1.70 48
10 06/02/2024 23:26:40 -70.08, 4.45 132.33 06/02/2024 23:26:16 -70.05, 4.46 132.36 3.45 24
11 06/05/2024 14:02:27 -71.00, 144.10 131.66 06/05/2024 14:03:34 -70.90, 146.31 131.83 81.06 67
12 06/05/2024 14:52:57 70.15, -47.21 47.45 06/05/2024 14:53:13 70.13, -47.19 47.42 2.44 16
13 06/05/2024 15:43:38 -70.01, 120.32 132.70 06/05/2024 15:42:43 -70.02, 120.30 132.68 1.96 55



Historial Predications of SNOs between NOAA-21 and LANDSAT-8
